| time (UTC) | temp F | wind direction | speed MPH | gust MPH | rain 1hr in | rain 24hr in | rain mn in | humidity % | barometer mb |
| 20260902211548 | 83 | 269 | 8.0 | 11.0 | 0.00 | 0.00 | 0.00 | 30 | 1004.1 |
| 20260902210044 | 82 | 272 | 4.0 | 9.0 | 0.00 | 0.00 | 0.00 | 31 | 1004.3 |
| 20260902204541 | 81 | 250 | 5.0 | 8.0 | 0.00 | 0.00 | 0.00 | 34 | 1004.8 |
| 20260902203038 | 82 | 230 | 0.0 | 4.0 | 0.00 | 0.00 | 0.00 | 32 | 1005.1 |
| 20260902201539 | 80 | 293 | 1.0 | 6.0 | 0.00 | 0.00 | 0.00 | 31 | 1005.3 |
| 20260902200035 | 80 | 238 | 1.0 | 7.0 | 0.00 | 0.00 | 0.00 | 36 | 1005.5 |
| 20260902194532 | 79 | 137 | 1.0 | 9.0 | 0.00 | 0.00 | 0.00 | 33 | 1005.7 |
| 20260902193029 | 79 | 248 | 3.0 | 7.0 | 0.00 | 0.00 | 0.00 | 33 | 1006.0 |
| 20260902191524 | 78 | 276 | 3.0 | 10.0 | 0.00 | 0.00 | 0.00 | 37 | 1006.1 |
| 20260902190022 | 77 | 278 | 5.0 | 8.0 | 0.00 | 0.00 | 0.00 | 38 | 1006.2 |
| 20260902184519 | 76 | 277 | 3.0 | 8.0 | 0.00 | 0.00 | 0.00 | 41 | 1006.4 |
| 20260902183018 | 76 | 251 | 4.0 | 10.0 | 0.00 | 0.00 | 0.00 | 41 | 1006.6 |
| 20260902181516 | 77 | 217 | 4.0 | 12.0 | 0.00 | 0.00 | 0.00 | 38 | 1006.8 |
| 20260902180011 | 76 | 264 | 4.0 | 9.0 | 0.00 | 0.00 | 0.00 | 41 | 1007.0 |
| 20260902174508 | 75 | 256 | 5.0 | 8.0 | 0.00 | 0.00 | 0.00 | 43 | 1007.2 |
| 20260902173018 | 74 | 243 | 0.0 | 2.0 | 0.00 | 0.00 | 0.00 | 47 | 1007.5 |
| 20260902171503 | 73 | 260 | 0.0 | 5.0 | 0.00 | 0.00 | 0.00 | 50 | 1007.5 |
| 20260902170059 | 71 | 209 | 0.0 | 1.0 | 0.00 | 0.00 | 0.00 | 56 | 1007.3 |
| 20260902164555 | 69 | 115 | 0.0 | 0.0 | 0.00 | 0.00 | 0.00 | 53 | 1007.3 |
| 20260902163054 | 69 | 122 | 0.0 | 0.0 | 0.00 | 0.00 | 0.00 | 53 | 1007.5 |
| 20260902161558 | 69 | 138 | 0.0 | 0.0 | 0.00 | 0.00 | 0.00 | 53 | 1007.6 |
| 20260902160051 | 68 | 264 | 0.0 | 0.0 | 0.00 | 0.00 | 0.00 | 52 | 1007.6 |
| 20260902154547 | 68 | 283 | 0.0 | 0.0 | 0.00 | 0.00 | 0.00 | 51 | 1007.8 |
| 20260902153046 | 67 | 280 | 0.0 | 0.0 | 0.00 | 0.00 | 0.00 | 52 | 1007.9 |
| 20260902151543 | 68 | 130 | 0.0 | 0.0 | 0.00 | 0.00 | 0.00 | 60 | 1008.2 |
| 20260902150041 | 68 | 136 | 0.0 | 0.0 | 0.00 | 0.00 | 0.00 | 55 | 1008.2 |
| 20260902144541 | 64 | 30 | 0.0 | 0.0 | 0.00 | 0.00 | 0.00 | 58 | 1008.3 |
| 20260902143040 | 61 | 51 | 0.0 | 0.0 | 0.00 | 0.00 | 0.00 | 66 | 1008.5 |
| 20260902141540 | 59 | 26 | 0.0 | 1.0 | 0.00 | 0.00 | 0.00 | 70 | 1008.5 |
| 20260902140043 | 59 | 16 | 0.0 | 2.0 | 0.00 | 0.00 | 0.00 | 72 | 1008.7 |
| 20260902134539 | 58 | 12 | 0.0 | 0.0 | 0.00 | 0.00 | 0.00 | 71 | 1008.7 |
| 20260902133039 | 59 | 1 | 0.0 | 0.0 | 0.00 | 0.00 | 0.00 | 67 | 1008.6 |
| 20260902131539 | 60 | 356 | 0.0 | 0.0 | 0.00 | 0.00 | 0.00 | 66 | 1008.4 |
| 20260902130042 | 60 | 21 | 0.0 | 0.0 | 0.00 | 0.00 | 0.00 | 62 | 1008.4 |
| 20260902124537 | 60 | 22 | 0.0 | 0.0 | 0.00 | 0.00 | 0.00 | 58 | 1008.5 |
| 20260902123039 | 60 | 22 | 0.0 | 0.0 | 0.00 | 0.00 | 0.00 | 59 | 1008.4 |
| 20260902121535 | 60 | 22 | 0.0 | 0.0 | 0.00 | 0.00 | 0.00 | 61 | 1008.5 |
| 20260902120035 | 61 | 22 | 0.0 | 0.0 | 0.00 | 0.00 | 0.00 | 62 | 1008.3 |
| 20260902114602 | 61 | 30 | 0.0 | 0.0 | 0.00 | 0.00 | 0.00 | 64 | 1008.0 |
| 20260902113041 | 59 | 23 | 0.0 | 0.0 | 0.00 | 0.00 | 0.00 | 66 | 1008.2 |
| 20260902111530 | 60 | 356 | 0.0 | 0.0 | 0.00 | 0.00 | 0.00 | 63 | 1008.5 |
| 20260902110038 | 58 | 286 | 0.0 | 0.0 | 0.00 | 0.00 | 0.00 | 64 | 1008.7 |
| 20260902104536 | 57 | 290 | 0.0 | 0.0 | 0.00 | 0.00 | 0.00 | 67 | 1008.8 |
| 20260902103027 | 59 | 288 | 0.0 | 0.0 | 0.00 | 0.00 | 0.00 | 62 | 1009.0 |
| 20260902101525 | 57 | 275 | 0.0 | 0.0 | 0.00 | 0.00 | 0.00 | 68 | 1008.9 |
| 20260902100024 | 56 | 275 | 0.0 | 0.0 | 0.00 | 0.00 | 0.00 | 70 | 1008.8 |
| 20260902094520 | 58 | 271 | 0.0 | 0.0 | 0.00 | 0.00 | 0.00 | 67 | 1008.7 |
| 20260902093016 | 60 | 250 | 0.0 | 0.0 | 0.00 | 0.00 | 0.00 | 63 | 1008.7 |
| 20260902091512 | 62 | 231 | 0.0 | 0.0 | 0.00 | 0.00 | 0.00 | 60 | 1008.5 |
| 20260902090008 | 63 | 243 | 0.0 | 0.0 | 0.00 | 0.00 | 0.00 | 60 | 1008.5 |
| 20260902084517 | 63 | 146 | 0.0 | 0.0 | 0.00 | 0.00 | 0.00 | 59 | 1008.6 |
| 20260902083005 | 63 | 157 | 0.0 | 0.0 | 0.00 | 0.00 | 0.00 | 57 | 1008.6 |
| 20260902081502 | 64 | 155 | 0.0 | 0.0 | 0.00 | 0.00 | 0.00 | 55 | 1008.6 |
| 20260902080104 | 64 | 157 | 0.0 | 0.0 | 0.00 | 0.00 | 0.00 | 53 | 1008.5 |
| 20260902080001 | 64 | 163 | 0.0 | 0.0 | 0.00 | 0.00 | 0.00 | 54 | 1008.6 |
| 20260902074612 | 64 | 146 | 0.0 | 0.0 | 0.00 | 0.00 | 0.00 | 53 | 1008.7 |
| 20260902073105 | 65 | 141 | 0.0 | 0.0 | 0.00 | 0.00 | 0.00 | 53 | 1008.7 |
| 20260902071602 | 65 | 172 | 0.0 | 0.0 | 0.00 | 0.00 | 0.00 | 55 | 1008.8 |
| 20260902070055 | 65 | 159 | 0.0 | 0.0 | 0.00 | 0.00 | 0.00 | 49 | 1008.5 |
| 20260902064552 | 66 | 151 | 0.0 | 0.0 | 0.00 | 0.00 | 0.00 | 51 | 1008.5 |
| 20260902063053 | 66 | 156 | 0.0 | 0.0 | 0.00 | 0.00 | 0.00 | 50 | 1008.7 |
| 20260902061551 | 67 | 149 | 0.0 | 0.0 | 0.00 | 0.00 | 0.00 | 50 | 1008.7 |
| 20260902060055 | 67 | 129 | 0.0 | 0.0 | 0.00 | 0.00 | 0.00 | 49 | 1008.8 |
| 20260902054545 | 68 | 133 | 0.0 | 0.0 | 0.00 | 0.00 | 0.00 | 47 | 1008.7 |
| 20260902053058 | 68 | 129 | 0.0 | 0.0 | 0.00 | 0.00 | 0.00 | 47 | 1008.9 |
| 20260902051544 | 69 | 165 | 0.0 | 0.0 | 0.00 | 0.00 | 0.00 | 46 | 1009.0 |
| 20260902050045 | 70 | 160 | 0.0 | 0.0 | 0.00 | 0.00 | 0.00 | 46 | 1008.9 |
| 20260902044641 | 71 | 143 | 0.0 | 0.0 | 0.00 | 0.00 | 0.00 | 44 | 1008.8 |
| 20260902043040 | 71 | 112 | 0.0 | 0.0 | 0.00 | 0.00 | 0.00 | 47 | 1008.9 |
| 20260902041541 | 71 | 129 | 0.0 | 0.0 | 0.00 | 0.00 | 0.00 | 45 | 1008.9 |
| 20260902040039 | 72 | 123 | 0.0 | 0.0 | 0.00 | 0.00 | 0.00 | 43 | 1008.9 |
| 20260902034551 | 72 | 115 | 0.0 | 0.0 | 0.00 | 0.00 | 0.00 | 41 | 1009.0 |
| 20260902033040 | 72 | 139 | 0.0 | 0.0 | 0.00 | 0.00 | 0.00 | 40 | 1009.0 |
| 20260902031537 | 73 | 158 | 0.0 | 0.0 | 0.00 | 0.00 | 0.00 | 40 | 1009.1 |
| 20260902030036 | 74 | 148 | 0.0 | 2.0 | 0.00 | 0.00 | 0.00 | 40 | 1009.0 |
| 20260902024538 | 75 | 140 | 0.0 | 0.0 | 0.00 | 0.00 | 0.00 | 35 | 1009.1 |
| 20260902023042 | 76 | 144 | 0.0 | 0.0 | 0.00 | 0.00 | 0.00 | 38 | 1009.1 |
| 20260902021536 | 76 | 131 | 0.0 | 0.0 | 0.00 | 0.00 | 0.00 | 35 | 1009.0 |
| 20260902020036 | 76 | 121 | 0.0 | 2.0 | 0.00 | 0.00 | 0.00 | 36 | 1008.9 |
| 20260902014537 | 77 | 146 | 0.0 | 1.0 | 0.00 | 0.00 | 0.00 | 36 | 1008.8 |
| 20260902013033 | 78 | 129 | 0.0 | 2.0 | 0.00 | 0.00 | 0.00 | 35 | 1008.9 |
| 20260902011534 | 80 | 162 | 1.0 | 3.0 | 0.00 | 0.00 | 0.00 | 31 | 1008.8 |
| 20260902010035 | 80 | 131 | 0.0 | 4.0 | 0.00 | 0.00 | 0.00 | 31 | 1008.9 |
| 20260902004531 | 81 | 130 | 0.0 | 2.0 | 0.00 | 0.00 | 0.00 | 32 | 1009.0 |
| 20260902003034 | 81 | 131 | 1.0 | 3.0 | 0.00 | 0.00 | 0.00 | 31 | 1009.0 |
| 20260902001543 | 82 | 127 | 1.0 | 4.0 | 0.00 | 0.00 | 0.00 | 31 | 1009.0 |
| 20260902000037 | 82 | 147 | 2.0 | 4.0 | 0.00 | 0.00 | 0.00 | 28 | 1009.1 |
| 20260901234527 | 81 | 132 | 2.0 | 6.0 | 0.00 | 0.00 | 0.00 | 29 | 1009.1 |
| 20260901233026 | 82 | 144 | 0.0 | 5.0 | 0.00 | 0.00 | 0.00 | 37 | 1009.3 |
| 20260901231524 | 83 | 113 | 2.0 | 8.0 | 0.00 | 0.00 | 0.00 | 28 | 1009.3 |
| 20260901230026 | 85 | 176 | 1.0 | 4.0 | 0.00 | 0.00 | 0.00 | 33 | 1009.4 |
| 20260901224526 | 85 | 122 | 0.0 | 1.0 | 0.00 | 0.00 | 0.00 | 22 | 1009.6 |
| 20260901223016 | 85 | 149 | 0.0 | 1.0 | 0.00 | 0.00 | 0.00 | 23 | 1009.7 |
| 20260901221514 | 84 | 241 | 2.0 | 5.0 | 0.00 | 0.00 | 0.00 | 21 | 1009.9 |
| 20260901220019 | 84 | 106 | 0.0 | 1.0 | 0.00 | 0.00 | 0.00 | 23 | 1010.1 |
| 20260901214509 | 83 | 100 | 0.0 | 1.0 | 0.00 | 0.00 | 0.00 | 25 | 1010.3 |
| 20260901213004 | 82 | 117 | 0.0 | 0.0 | 0.00 | 0.00 | 0.00 | 25 | 1010.5 |